User: anonymous   Login
Location: Stara Lesna
(49.1528°N, 20.2911°E)
Time: 16:59:31
(UTC+01:00)
Language:

Iridium 4 Rocket - Orbit

View from above orbital plane
View from above orbital plane
View from above satellite
View from above satellite

Ground track
Ground track

The orbit data is extracted from the following two-line orbital elements,

1 24797U 97020F   19322.31699939  .00000116  00000-0  20205-4 0  9994
2 24797  86.8994  29.5741 0223047 248.9739 153.0238 14.44142508185530
Epoch (UTC): 18 November 2019 07:36:28
Eccentricity: 0.0223047
inclination: 86.8994°
perigee height: 586 km
apogee height: 904 km
right ascension of ascending node: 29.5741°
argument of perigee: 248.9739°
revolutions per day: 14.44142508
mean anomaly at epoch: 153.0238°
orbit number at epoch: 18553

The dashed part of the orbit path shows where the satellite is in the earth's shadow,  

DLR